Location: Ay?beleni
(36.6500°N, 30.3000°E)
Time: 08:50:36
(UTC+00:00)

IRIDIUM 114 - Pass Details

Date: 09 April 2020
Orbit: 776 x 779 km, 86.4° (Epoch: 31 May)

Event Time Altitude Azimuth Distance (km) Brightness Sun altitude
Rises 17:09:44 0° 359° (N) 3,269 7.8 -8.9°
Reaches altitude 10° 17:12:06 10° 1° (N) 2,337 7.0 -9.4°
Maximum altitude 17:17:20 77° 88° (E) 803 4.3 -10.4°
Drops below altitude 10° 17:22:32 10° 174° (S) 2,320 6.5 -11.4°
Sets 17:24:52 0° 176° (S) 3,243 7.3 -11.8°
